This demonstration page uses our WeatherBlox Daily Observations layout. Learn more.

Left ArrowRight Arrow

44.31136, -96.79839

Hourly Observations for September 14, 2021

Temp ( °F °C ) Dew Point ( °F °C ) Humidity (%) Winds ( mph kmh ) Pressure ( in mb ) Visibility ( mi km ) Precip ( " mm )
12:16 am 00:16 Mostly Cloudy with Mist and Fog 55 13 55 13 100 100 W 5 7 29.83 1010 1 2 0.00 0.00
12:18 am 00:18 Mostly Clear with Mist and Fog 55 13 55 13 100 100 W 6 9 29.83 1010 2 3 0.00 0.00
12:25 am 00:25 Mostly Clear 55 13 55 13 100 100 WNW 5 7 29.83 1010 10 16 0.00 0.00
12:44 am 00:44 Clear with Mist and Fog 55 13 54 12 94 94 WNW 7 11 29.83 1010 2 3 0.00 0.00
12:54 am 00:54 Clear with Mist and Fog 54 12 54 12 100 100 WNW 8 13 29.84 1010 3 5 0.00 0.00
12:56 am 00:56 Clear with Mist and Fog 53 11.7 53 11.7 100 100 WNW 8 13 29.87 1012 6 10 0.00 0.00
1:10 am 01:10 Partly Cloudy 55 13 54 12 94 94 NW 10 17 29.84 1011 10 16 0.00 0.00
1:15 am 01:15 Mostly Cloudy 55 13 55 13 100 100 NW 10 17 29.84 1011 10 16 0.00 0.00
1:56 am 01:56 Cloudy 58 14.4 58 14.4 100 100 NW 12 19 29.89 1012 10 16 0.00 0.00
2:07 am 02:07 Cloudy 57 14 57 14 100 100 NW 13 20 29.85 1011 10 16 0.00 0.00
2:34 am 02:34 Cloudy 57 14 57 14 100 100 NW 13 20 29.86 1011 10 16 0.00 0.00
2:56 am 02:56 Cloudy 58 14.4 56 13.3 93 93 NW 14 22 29.91 1013 10 16 0.00 0.00
3:56 am 03:56 Cloudy 58 14.4 56 13.3 93 93 NW 13 20 29.92 1013 10 16 0.00 0.00
4:56 am 04:56 Cloudy 57 13.9 55 12.8 93 93 NW 9 15 29.93 1014 10 16 0.00 0.00
5:56 am 05:56 Cloudy 57 13.9 55 12.8 93 93 NW 13 20 29.94 1014 10 16 0.00 0.00
6:56 am 06:56 Cloudy 57 13.9 55 12.8 93 93 NW 8 13 29.96 1015 10 16 0.00 0.00
7:23 am 07:23 Cloudy 57 14 55 13 94 94 NW 7 11 29.93 1013 10 16 0.00 0.00
7:56 am 07:56 Cloudy 57 13.9 56 13.3 96 96 NW 7 11 29.98 1015 10 16 0.00 0.00
8:56 am 08:56 Cloudy 60 15.6 56 13.3 86 86 NNW 9 15 29.99 1016 10 16 0.00 0.00
9:24 am 09:24 Cloudy 61 16 57 14 88 88 WNW 9 15 29.93 1014 10 16 0.00 0.00
9:56 am 09:56 Cloudy 61 16.1 56 13.3 84 84 WNW 13 20 30.01 1016 10 16 0.00 0.00
10:16 am 10:16 Mostly Cloudy 61 16 57 14 88 88 WNW 10 17 29.95 1014 10 16 0.00 0.00
10:56 am 10:56 Cloudy 62 16.7 57 13.9 84 84 W 9 15 30.02 1017 10 16 0.00 0.00
11:56 am 11:56 Cloudy 63 17.2 57 13.9 81 81 WNW 10 17 30.03 1017 10 16 0.00 0.00
12:56 pm 12:56 Mostly Cloudy 64 17.8 58 14.4 81 81 NW 9 15 30.03 1017 10 16 0.00 0.00
1:24 pm 13:24 Mostly Cloudy 64 18 57 14 78 78 NW 6 9 29.95 1014 10 16 0.00 0.00
1:56 pm 13:56 Mostly Sunny 67 19.4 57 13.9 71 71 NNW 9 15 30.01 1016 10 16 0.00 0.00
2:56 pm 14:56 Sunny 69 20.6 54 12.2 59 59 NNW 10 17 30.00 1016 10 16 0.00 0.00
3:56 pm 15:56 Sunny 71 21.7 50 10 47 47 NNW 12 19 29.99 1016 10 16 0.00 0.00
4:56 pm 16:56 Sunny 71 21.7 46 7.8 41 41 NW 10 17 29.99 1016 10 16 0.00 0.00
5:56 pm 17:56 Sunny 70 21.1 45 7.2 41 41 NNW 12 19 30.00 1016 10 16 0.00 0.00
6:56 pm 18:56 Sunny 68 20 46 7.8 45 45 N 6 9 30.01 1016 10 16 0.00 0.00
7:56 pm 19:56 Clear 64 17.8 45 7.2 50 50 NE 3 6 30.02 1017 10 16 0.00 0.00
8:56 pm 20:56 Clear 59 15 46 7.8 62 62 Calm 30.04 1017 10 16 0.00 0.00
9:56 pm 21:56 Clear 55 12.8 47 8.3 74 74 Calm 30.05 1018 10 16 0.00 0.00
10:56 pm 22:56 Clear 55 12.8 46 7.8 72 72 Calm 30.05 1018 10 16 0.00 0.00
11:56 pm 23:56 Clear 53 11.7 47 8.3 80 80 Calm 30.05 1018 10 16 0.00 0.00

Powered by AerisWeather